Location: Congrier
(47.8099°N, 1.1170°W)
Time: 15:15:34
(UTC+00:00)

IRIDIUM 106 - Pass Details

Date: 28 January 2023
Orbit: 776 x 779 km, 86.4° (Epoch: 25 March)

Event Time Altitude Azimuth Distance (km) Brightness Sun altitude
Rises 19:02:30 0° 359° (N) 3,277 7.5 -20.8°
Reaches altitude 10° 19:04:55 10° 4° (N) 2,344 6.7 -21.2°
Maximum altitude 19:10:04 55° 82° (E) 941 4.3 -22.1°
Enters shadow 19:11:25 42° 130° (SE) 1,096 4.7 -22.3°
Exits shadow 19:16:35 - 163° (SSE) 2,868 7.1 -23.2°
Sets 19:17:34 0° 165° (SSE) 3,249 7.4 -23.3°
